Regional Weather Roundup
Issued by NWS

Home | Current Version | Previous Version | Graphics & Text | Print | Product List | Glossary On
Versions: 1 2 3 4 5 6 7 8 9 10 11 12 13 14 15 16 17 18 19 20 21 22 23 24 25 26 27 28 29 30 31 32 33 34 35 36 37 38 39 40 41 42 43 44 45 46 47 48 49 50
000
ASUS43 KIND 181409
RWRIN

WEATHER ROUNDUP FOR INDIANA
NATIONAL WEATHER SERVICE INDIANAPOLIS IN
1000 AM EDT FRI AUG 18 2017

NOTE: "FAIR" INDICATES FEW OR NO CLOUDS BELOW 12,000 FEET WITH NO
SIGNIFICANT WEATHER AND/OR OBSTRUCTIONS TO VISIBILITY.

* - STATION DOES NOT REPORT WEATHER SUCH AS PRECIPITATION OR FOG.

+ - STATION NOT QUALITY CONTROLLED BY THE NATIONAL WEATHER SERVICE.
    USE DATA WITH CAUTION...ESPECIALLY DEWPOINT AND RELATIVE
    HUMIDITY OBSERVATIONS.

INZ001>003-010>013-019-020-181500-
NORTHWEST INDIANA

CITY           SKY/WX    TMP DP  RH WIND       PRES   REMARKS
GARY /AIRPORT/ PTSUNNY   72  63  73 W12       29.87R
KNOX *+        MOSUNNY   70  64  83 W10       29.86R
LA PORTE +     CLOUDY    70  64  80 W8        29.86R
MICHIGAN CITY+ CLOUDY    70  61  73 W8        29.86R
MONTICELLO +   MOSUNNY   72  65  80 W7        29.88R
RENSSELAER +   MOSUNNY   70  63  78 W8        29.89R
VALPARAISO     PTSUNNY   72  65  78 W9        29.87R

$$

LMZ046-743>745-181500-
SOUTHERN LAKE MICHIGAN

STATION/POSITION TIME  TEMP    WIND        PRES    WAVE
                       AIR SEA DIR/SP/G            HT
                 (UTC) (F)     (DEG/KT/KT) (MB)    (FT)
BURNS HARBOR     1340   70     280/ 11/ 14 1011.5R
MICHIGAN CITY    1340   69     270/ 16/ 18   N/A
5NW MICH CITY    1400   70 74  300/ 14/ 17   N/A     4

$$

INZ004-005-014>016-021>024-181500-
NORTH CENTRAL INDIANA

CITY           SKY/WX    TMP DP  RH WIND       PRES   REMARKS
ELKHART        CLOUDY    70  63  78 W12       29.83S
GOSHEN         MOSUNNY   71  62  73 W13       29.84R
LOGANSPORT +   MOSUNNY   70  64  83 W9        29.88S
PERU/GRISSOM   MOSUNNY   71  66  84 W12       29.86S
ROCHESTER +    MOSUNNY   73  66  78 W9        29.87R
SOUTH BEND     CLOUDY    70  64  81 W12       29.85R
WARSAW +       PTSUNNY   70  64  83 W10       29.85S

$$

INZ006>009-017-018-025>027-181500-
NORTHEAST INDIANA

CITY           SKY/WX    TMP DP  RH WIND       PRES   REMARKS
AUBURN +       MOSUNNY   72  64  78 W8        29.84S
FORT WAYNE     PTSUNNY   72  64  76 W14       29.85S
HUNTINGTON +   MOSUNNY   72  66  81 W9        29.85S
KENDALLVILLE + PTSUNNY   70  64  81 W12       29.84S

$$

INZ028-029-035-036-043>045-051>053-181500-
WEST CENTRAL INDIANA

CITY           SKY/WX    TMP DP  RH WIND       PRES   REMARKS
GREENCASTLE +  SUNNY     72  63  73 NW3       29.92R
LAFAYETTE      SUNNY     71  66  84 W8        29.88S
TERRE HAUTE    SUNNY     75  64  68 W6        29.92R

$$

INZ030>032-037>040-046>048-054>057-064-065-181500-
CENTRAL INDIANA

CITY           SKY/WX    TMP DP  RH WIND       PRES   REMARKS
CP ATTERBURY + SUNNY     75  64  69 W5        29.92R
COLUMBUS       SUNNY     73  66  78 W7        29.92
FRANKFORT +    MOSUNNY   73  67  81 W9        29.91R
GREENWOOD *+   SUNNY     73  64  73 W8        29.91F
INDIANAPOLIS   MOSUNNY   74  65  73 W6        29.90R
-EAGLE CREEK   SUNNY     74  64  71 W5        29.90R
KOKOMO +       MOSUNNY   71  66  84 W13       29.89R
MARION +       MOSUNNY   70  66  88 W10       29.89S
MT COMFORT *+  SUNNY     72  64  78 W8        29.90S
SHELBYVILLE    SUNNY     75  65  70 W8        29.90S
ZIONSVILLE +   SUNNY     71  65  83 W6        29.91R

$$

INZ033-034-041-042-049-050-058-059-181500-
EAST CENTRAL INDIANA

CITY           SKY/WX    TMP DP  RH WIND       PRES   REMARKS
MUNCIE         SUNNY     75  65  70 W8        29.88S
RICHMOND +     MOSUNNY   70  68  94 W8        29.92R

$$

INZ060-061-067>069-081>083-085>088-181500-
SOUTHWEST INDIANA

CITY           SKY/WX    TMP DP  RH WIND       PRES   REMARKS
EVANSVILLE     SUNNY     76  65  68 W8        29.95R
HUNTINGBURG +  SUNNY     74  67  78 MISG      29.95R
WASHINGTON +   SUNNY     74  64  70 MISG      29.93R

$$

INZ062-063-066-070>080-084-089>092-181500-
SOUTH CENTRAL AND SOUTHEAST INDIANA

CITY           SKY/WX    TMP DP  RH WIND       PRES   REMARKS
BEDFORD +      SUNNY     73  66  78 W5        29.93R
BLOOMINGTON    SUNNY     74  65  73 W6        29.92S
MADISON *+     SUNNY     75  68  78 W6        29.94S
NORTH VERNON + SUNNY     73  66  78 W6        29.93R
SEYMOUR +      SUNNY     77  68  73 W7        29.92R

$$





USA.gov is the U.S. government's official web portal to all federal, state and local government web resources and services.